User: anonymous   Login
Location: Caltech
(34.1382°N, 118.1253°W)
Time: 18:03:24
(UTC-07:00)
Language:

BREEZE M DEB (TANK) - Orbit

View from above orbital plane
View from above orbital plane
View from above satellite
View from above satellite

Ground track
Ground track

The orbit data is extracted from the following two-line orbital elements,

1 33437U 08057B   15086.84087953  .00005751  00000-0  14221-2 0  9994
2 33437 049.5450 219.8570 5008771 206.1821 347.4570 05.57135699128426
Epoch (UTC): 27 March 2015 20:10:51
Eccentricity: 0.5008771
inclination: 49.5450°
perigee height: 330 km
apogee height: 13795 km
right ascension of ascending node: 219.8570°
argument of perigee: 206.1821°
revolutions per day: 5.57135699
mean anomaly at epoch: 347.4570°
orbit number at epoch: 12842

The dashed part of the orbit path shows where the satellite is in the earth's shadow,  

DLR